EN

Hourly Weather Lukashivka

Today, 1 December, Tuesday

Time Temperature Precipitation Wind Pressure Humidity
00:00 -4°C° 0.4 mm 6 mps 755 mmHg 96%
01:00 -4°C° 0.4 mm 6 mps 755 mmHg 96%
02:00 -4°C° 0.4 mm 6 mps 755 mmHg 96%
03:00 -4°C° 0.2 mm 6 mps 755 mmHg 96%
04:00 -4°C° 0.2 mm 6 mps 754 mmHg 96%
05:00 -4°C° 0.2 mm 6 mps 754 mmHg 96%
06:00 -4°C° 0.3 mm 5 mps 754 mmHg 95%
07:00 -4°C° 0.3 mm 5 mps 754 mmHg 95%
08:00 -4°C° 0.3 mm 5 mps 754 mmHg 95%
09:00 -4°C° 0.1 mm 5 mps 754 mmHg 96%
10:00 -4°C° 0.1 mm 5 mps 754 mmHg 96%
11:00 -2°C° 0.1 mm 5 mps 754 mmHg 96%
12:00 -2°C° 0.1 mm 5 mps 754 mmHg 97%
13:00 -2°C° 0.1 mm 5 mps 754 mmHg 97%
14:00 -2°C° 0.1 mm 4 mps 754 mmHg 97%
15:00 -2°C° 0 mm 4 mps 754 mmHg 98%
16:00 -2°C° 0 mm 4 mps 754 mmHg 98%
17:00 -2°C° 0 mm 4 mps 754 mmHg 98%
18:00 -1°C° 0 mm 4 mps 754 mmHg 99%
19:00 0°C° 0 mm 3 mps 754 mmHg 99%
20:00 0°C° 0 mm 3 mps 754 mmHg 99%
21:00 0°C° 0 mm 3 mps 754 mmHg 99%
22:00 +1°C° 0 mm 2 mps 754 mmHg 99%
23:00 +1°C° 0 mm 2 mps 754 mmHg 99%

Tomorrow, 2 December, Wednesday

Time Temperature Precipitation Wind Pressure Humidity
00:00 +1°C° 0 mm 2 mps 755 mmHg 99%
01:00 +1°C° 0 mm 2 mps 755 mmHg 99%
02:00 +1°C° 0 mm 2 mps 755 mmHg 99%
03:00 -1°C° 0 mm 2 mps 755 mmHg 99%
04:00 -1°C° 0 mm 2 mps 755 mmHg 99%
05:00 -1°C° 0 mm 2 mps 754 mmHg 99%
06:00 -1°C° 0.1 mm 2 mps 755 mmHg 99%
07:00 -1°C° 0.1 mm 2 mps 755 mmHg 99%
08:00 +1°C° 0.1 mm 2 mps 755 mmHg 99%
09:00 +1°C° 0.1 mm 2 mps 755 mmHg 99%
10:00 +1°C° 0.1 mm 2 mps 755 mmHg 99%
11:00 +1°C° 0.1 mm 2 mps 755 mmHg 99%
12:00 +1°C° 0.1 mm 2 mps 755 mmHg 99%
13:00 +1°C° 0.1 mm 2 mps 755 mmHg 99%
14:00 +1°C° 0.1 mm 2 mps 754 mmHg 99%
15:00 +1°C° 0.1 mm 2 mps 754 mmHg 99%
16:00 +1°C° 0.1 mm 2 mps 754 mmHg 99%
17:00 +1°C° 0.1 mm 2 mps 754 mmHg 99%
18:00 +1°C° 0.1 mm 2 mps 754 mmHg 99%
19:00 +1°C° 0.1 mm 2 mps 754 mmHg 99%
20:00 +1°C° 0.1 mm 2 mps 754 mmHg 99%
21:00 +1°C° 0 mm 2 mps 754 mmHg 99%
22:00 +1°C° 0 mm 2 mps 754 mmHg 99%
23:00 +3°C° 0 mm 1 mps 754 mmHg 99%

Day after tomorrow, 3 December, Thursday

Time Temperature Precipitation Wind Pressure Humidity
00:00 +3°C° 0 mm 1 mps 754 mmHg 99%
01:00 +3°C° 0 mm 1 mps 754 mmHg 99%
02:00 +3°C° 0 mm 1 mps 754 mmHg 99%
03:00 +2°C° 0 mm 1 mps 754 mmHg 99%
04:00 +2°C° 0 mm 1 mps 754 mmHg 99%
05:00 +2°C° 0 mm 1 mps 754 mmHg 99%
06:00 +2°C° 0 mm 1 mps 754 mmHg 99%
07:00 +2°C° 0 mm 1 mps 754 mmHg 99%
08:00 +2°C° 0 mm 1 mps 754 mmHg 99%
09:00 +2°C° 0 mm 1 mps 754 mmHg 98%
10:00 +1°C° 0 mm 2 mps 754 mmHg 97%
11:00 +1°C° 0 mm 2 mps 754 mmHg 96%
12:00 +1°C° 0 mm 2 mps 754 mmHg 94%
13:00 +1°C° 0 mm 2 mps 754 mmHg 93%
14:00 +2°C° 0 mm 2 mps 754 mmHg 92%
15:00 +1°C° 0 mm 2 mps 754 mmHg 92%
16:00 +1°C° 0 mm 2 mps 753 mmHg 92%
17:00 +1°C° 0 mm 2 mps 753 mmHg 92%
18:00 0°C° 0 mm 3 mps 753 mmHg 90%
19:00 +1°C° 0 mm 3 mps 753 mmHg 88%
20:00 +1°C° 0 mm 3 mps 754 mmHg 86%
21:00 0°C° 0 mm 4 mps 753 mmHg 86%
22:00 0°C° 0 mm 4 mps 753 mmHg 85%
23:00 +1°C° 0 mm 4 mps 753 mmHg 85%

4 December, Friday

Time Temperature Precipitation Wind Pressure Humidity
00:00 +1°C° 0 mm 4 mps 753 mmHg 84%
01:00 +1°C° 0 mm 4 mps 753 mmHg 84%
02:00 +1°C° 0 mm 4 mps 753 mmHg 84%
03:00 0°C° 0 mm 4 mps 752 mmHg 87%
04:00 0°C° 0 mm 4 mps 752 mmHg 90%
05:00 0°C° 0 mm 4 mps 752 mmHg 94%
06:00 -1°C° 0 mm 4 mps 752 mmHg 94%
07:00 -1°C° 0 mm 4 mps 752 mmHg 95%
08:00 -1°C° 0 mm 5 mps 752 mmHg 96%
09:00 0°C° 0 mm 5 mps 752 mmHg 92%
10:00 +1°C° 0 mm 5 mps 752 mmHg 89%
11:00 +2°C° 0 mm 5 mps 752 mmHg 86%
12:00 +2°C° 0 mm 5 mps 752 mmHg 85%
13:00 +3°C° 0 mm 5 mps 751 mmHg 84%
14:00 +3°C° 0 mm 5 mps 751 mmHg 83%
15:00 +3°C° 0 mm 5 mps 751 mmHg 87%
16:00 +2°C° 0 mm 5 mps 751 mmHg 90%
17:00 +2°C° 0 mm 5 mps 751 mmHg 93%
18:00 +2°C° 0 mm 6 mps 751 mmHg 93%
19:00 +2°C° 0 mm 6 mps 751 mmHg 93%
20:00 +2°C° 0 mm 6 mps 752 mmHg 92%
21:00 +2°C° 0 mm 6 mps 752 mmHg 92%
22:00 +2°C° 0 mm 6 mps 752 mmHg 91%
23:00 +2°C° 0 mm 5 mps 751 mmHg 91%

5 December, Saturday

Time Temperature Precipitation Wind Pressure Humidity
00:00 +2°C° 0 mm 6 mps 751 mmHg 91%
01:00 +2°C° 0 mm 6 mps 751 mmHg 92%
02:00 +2°C° 0 mm 6 mps 751 mmHg 93%
03:00 +2°C° 0 mm 6 mps 751 mmHg 93%
04:00 +2°C° 0 mm 6 mps 751 mmHg 93%
05:00 +2°C° 0 mm 6 mps 751 mmHg 93%
06:00 +2°C° 0 mm 6 mps 751 mmHg 93%
07:00 +2°C° 0 mm 7 mps 751 mmHg 93%
08:00 +2°C° 0 mm 7 mps 751 mmHg 92%
09:00 +2°C° 0 mm 7 mps 752 mmHg 90%
10:00 +2°C° 0 mm 7 mps 752 mmHg 88%
11:00 +3°C° 0 mm 6 mps 752 mmHg 86%
12:00 +3°C° 0 mm 6 mps 752 mmHg 83%
13:00 +4°C° 0 mm 6 mps 752 mmHg 81%
14:00 +4°C° 0 mm 6 mps 752 mmHg 78%
15:00 +4°C° 0 mm 6 mps 752 mmHg 80%
16:00 +3°C° 0 mm 6 mps 752 mmHg 82%
17:00 +2°C° 0 mm 6 mps 752 mmHg 84%
18:00 +2°C° 0 mm 6 mps 753 mmHg 84%
19:00 +2°C° 0 mm 6 mps 753 mmHg 85%
20:00 +2°C° 0 mm 7 mps 753 mmHg 85%
21:00 0°C° 0 mm 7 mps 753 mmHg 85%
22:00 0°C° 0 mm 7 mps 753 mmHg 86%
23:00 0°C° 0 mm 7 mps 753 mmHg 86%

6 December, Sunday

Time Temperature Precipitation Wind Pressure Humidity
00:00 +1°C° 0 mm 6 mps 753 mmHg 87%
01:00 -1°C° 0 mm 6 mps 754 mmHg 88%
02:00 -1°C° 0 mm 6 mps 754 mmHg 88%
03:00 -1°C° 0 mm 6 mps 754 mmHg 89%
04:00 -1°C° 0 mm 6 mps 754 mmHg 89%
05:00 -2°C° 0 mm 6 mps 754 mmHg 89%
06:00 -2°C° 0 mm 6 mps 754 mmHg 90%
07:00 -2°C° 0 mm 7 mps 754 mmHg 90%
08:00 -2°C° 0 mm 7 mps 754 mmHg 90%
09:00 -2°C° 0 mm 7 mps 754 mmHg 87%
10:00 -2°C° 0 mm 7 mps 754 mmHg 85%
11:00 -1°C° 0 mm 7 mps 755 mmHg 82%
12:00 -1°C° 0 mm 7 mps 754 mmHg 79%
13:00 0°C° 0 mm 7 mps 754 mmHg 76%
14:00 +2°C° 0 mm 6 mps 754 mmHg 73%
15:00 +1°C° 0 mm 6 mps 754 mmHg 74%
16:00 +1°C° 0 mm 6 mps 754 mmHg 76%
17:00 -1°C° 0 mm 6 mps 754 mmHg 78%
18:00 -1°C° 0 mm 6 mps 754 mmHg 78%
19:00 -1°C° 0 mm 6 mps 754 mmHg 78%
20:00 -2°C° 0 mm 6 mps 754 mmHg 78%
21:00 -2°C° 0 mm 6 mps 755 mmHg 78%
22:00 -2°C° 0 mm 6 mps 755 mmHg 78%
23:00 -3°C° 0 mm 6 mps 755 mmHg 78%
Show more